Southport, FL

5:10 AM CDT on September 28, 2016 (GMT -0500)
Northwest Florida Beaches International

Weather History for KECP - December, 2012

Change the Weather History Date:

Thursday, December 13, 2012

  Actual Average Record
Temperature  
Mean Temperature 48 °F -  
Max Temperature 59 °F - 79 °F (2015)
Min Temperature 37 °F - 28 °F (2010)
Degree Days  
Heating Degree Days 17    
Cooling Degree Days 0    
Moisture  
Dew Point 41 °F    
Average Humidity 77    
Maximum Humidity 96    
Minimum Humidity 57    
Precipitation  
Precipitation 0.00 in - 0.00 in (2016)
Month to date precipitation  
Year to date precipitation  
Sea Level Pressure  
Sea Level Pressure 30.28 in    
Wind  
Wind Speed 5 mph (North)    
Max Wind Speed 15 mph    
Max Gust Speed 18 mph    
Visibility 8 miles    
Events      
T = Trace of Precipitation, MM = Missing Value Source: NWS Daily Summary

Daily Weather History Graph

Daily Weather History Graph

Search for Another Location

Airport or City:

Trip Planner

Search our weather history database for the weather conditions in past years. The results will help you decide how hot, cold, wet, or windy it might be!

Date:

Astronomy

Dec. 13, 2012 Rise Set
Actual Time 7:31 AM EST 5:43 PM EST
Civil Twilight 7:04 AM EST 6:10 PM EST
Nautical Twilight 6:34 AM EST 6:40 PM EST
Astronomical Twilight 6:05 AM EST 7:09 PM EST
Moon 7:40 AM EST (12/13) 6:23 PM EST (12/13)
Length of Visible Light 11h 05m
Length of Day
10h 12m
New Moon, 0% of the Moon is Illuminated
Dec 13
New Moon
Dec 20
First Quarter
Dec 28
Full
Jan 4
Last Quarter
Jan 11
New

Hourly Weather History & Observations

Time (EST) Temp. Windchill Dew Point Humidity Pressure Visibility Wind Dir Wind Speed Gust Speed Precip Events Conditions
12:53 AM 39.9 °F - 37.9 °F 93% 30.24 in 6.0 mi Calm Calm - N/A   Mostly Cloudy
1:44 AM 39.2 °F 35.0 °F 37.4 °F 93% 30.20 in 6.0 mi NNW 5.8 mph - N/A   Scattered Clouds
1:53 AM 39.0 °F 34.8 °F 37.0 °F 93% 30.24 in 6.0 mi NW 5.8 mph - N/A   Partly Cloudy
2:53 AM 37.9 °F 35.5 °F 36.0 °F 93% 30.25 in 6.0 mi North 3.5 mph - N/A   Clear
3:53 AM 39.0 °F 36.8 °F 36.0 °F 89% 30.25 in 8.0 mi NNW 3.5 mph - N/A   Clear
4:53 AM 37.0 °F 34.5 °F 35.1 °F 93% 30.25 in 6.0 mi NNW 3.5 mph - N/A   Clear
5:44 AM 39.2 °F 35.0 °F 35.6 °F 87% 30.23 in 6.0 mi NNW 5.8 mph - N/A   Mostly Cloudy
5:53 AM 39.0 °F 34.0 °F 37.0 °F 93% 30.27 in 6.0 mi NNW 6.9 mph - N/A   Overcast
6:53 AM 42.1 °F 38.4 °F 39.9 °F 92% 30.28 in 5.0 mi NNW 5.8 mph - N/A   Overcast
7:53 AM 45.0 °F 41.8 °F 43.0 °F 93% 30.29 in 5.0 mi North 5.8 mph - N/A   Overcast
8:53 AM 46.9 °F - 44.1 °F 90% 30.29 in 7.0 mi North 9.2 mph - N/A   Overcast
9:53 AM 50.0 °F - 46.0 °F 86% 30.32 in 10.0 mi North 9.2 mph - N/A   Overcast
10:53 AM 51.1 °F - 46.0 °F 83% 30.34 in 10.0 mi NNE 10.4 mph - N/A   Overcast
11:53 AM 52.0 °F - 45.0 °F 77% 30.34 in 10.0 mi NNE 10.4 mph - N/A   Overcast
12:00 PM 51.8 °F - 44.6 °F 76% 30.29 in 10.0 mi North 10.4 mph - N/A   Overcast
12:53 PM 55.0 °F - 45.0 °F 69% 30.30 in 10.0 mi NNE 11.5 mph - N/A   Overcast
1:00 PM 53.6 °F - 44.6 °F 72% 30.26 in 10.0 mi North 12.7 mph - N/A   Mostly Cloudy
1:37 PM 57.2 °F - 44.6 °F 63% 30.26 in 10.0 mi NNE 8.1 mph - N/A   Scattered Clouds
1:53 PM 55.9 °F - 45.0 °F 67% 30.29 in 10.0 mi NNE 8.1 mph - N/A   Scattered Clouds
2:53 PM 57.0 °F - 45.0 °F 64% 30.27 in 10.0 mi North 13.8 mph 18.4 mph N/A   Clear
3:53 PM 59.0 °F - 45.0 °F 60% 30.26 in 10.0 mi North 11.5 mph - N/A   Clear
4:53 PM 57.0 °F - 45.0 °F 64% 30.27 in 10.0 mi NNE 5.8 mph - N/A   Clear
5:53 PM 53.6 °F - 44.6 °F 72% 30.24 in 10.0 mi North 5.8 mph - N/A   Clear
6:53 PM 48.9 °F - 44.1 °F 83% 30.29 in 10.0 mi Calm Calm - N/A   Clear
7:53 PM 45.0 °F - 42.1 °F 90% 30.30 in 7.0 mi Calm Calm - N/A   Clear
8:53 PM 43.0 °F - 41.0 °F 93% 30.31 in 7.0 mi Calm Calm - N/A   Clear
9:53 PM 42.1 °F - 39.0 °F 89% 30.33 in 9.0 mi Calm Calm - N/A   Clear
10:53 PM 42.1 °F 39.2 °F 39.0 °F 89% 30.32 in 8.0 mi NE 4.6 mph - N/A   Clear
11:53 PM 39.9 °F 37.8 °F 37.9 °F 93% 30.33 in 6.0 mi North 3.5 mph - N/A   Clear